Theta_e
341 348 350 352 352 352 351 351 350 350 351 350 350 351 351 351 351 351 351 350 351 350 348 348 348 346 344 345 346 346 346 347 347 349 347 345 342 343 348 347 347 343 345
346 348 349 350 351 352 351 351 351 351 351 349 350 350 350 351 351 350 350 350 350 348 347 347 346 344 344 346 345 345 345 343 342 344 348 344 342 341 340 343 345 344 345
344 347 348 349 351 351 352 352 352 351 349 349 349 350 350 351 351 351 350 349 349 347 346 345 345 344 344 342 343 343 343 342 340 339 342 340 341 342 342 343 344 343 342
345 346 347 349 350 351 351 351 350 350 349 349 349 349 349 348 349 350 350 349 348 346 345 345 344 343 341 342 341 342 340 341 340 340 335 336 340 346 346 345 345 341 340
344 346 348 348 349 350 350 350 350 350 349 349 349 348 348 348 348 348 348 348 347 345 344 343 342 340 340 340 340 341 339 340 337 337 332 333 339 346 347 347 346 346 344
343 344 345 346 347 349 349 349 349 348 347 348 348 348 346 346 346 346 346 347 345 344 342 341 340 340 340 339 340 339 339 339 333 336 339 343 343 346 346 346 345 345 345
341 343 345 344 347 348 349 348 347 346 345 346 346 347 347 345 344 344 344 344 344 342 341 340 340 340 339 339 339 339 339 338 337 339 340 341 342 343 342 341 340 340 341
341 343 345 347 346 346 346 345 344 344 344 344 344 345 346 345 344 344 343 343 342 341 341 340 340 340 340 340 339 338 338 339 339 338 338 340 342 341 341 339 337 337 337
341 342 343 344 344 343 341 341 341 342 342 342 342 342 342 342 342 343 343 343 343 343 343 342 342 341 342 340 338 337 336 339 336 339 339 338 341 340 339 337 335 334 334
338 338 338 339 338 337 337 339 340 340 340 340 341 340 341 341 342 342 342 343 342 342 342 342 341 341 341 338 336 335 334 335 337 338 338 338 339 338 336 333 332 330 329
336 336 336 336 335 334 333 338 339 340 340 339 339 340 338 338 342 342 340 340 340 339 339 340 340 339 339 335 334 332 330 329 330 332 334 337 336 336 332 328 327 326 324
333 334 336 335 334 333 338 334 332 336 334 330 331 335 338 337 337 339 338 337 336 336 338 339 338 338 335 330 329 328 325 326 325 326 328 332 333 332 327 325 323 322 321
333 335 333 334 333 333 333 337 331 329 327 326 327 328 329 330 329 333 336 332 329 332 333 335 334 333 328 328 325 324 322 322 321 320 322 325 325 324 323 321 320 320 318
329 330 332 330 331 331 331 329 325 324 324 324 324 325 326 326 325 325 323 322 321 320 325 332 330 326 323 320 324 322 320 319 317 314 317 321 320 319 320 320 319 318 317
327 326 325 328 327 327 327 325 325 322 320 319 318 318 321 318 317 315 313 312 311 313 315 324 326 324 321 316 315 318 317 315 313 311 311 319 319 316 318 319 319 318 317
326 324 323 324 323 323 322 321 322 319 316 314 314 314 314 315 313 311 309 309 307 307 309 314 323 319 314 313 311 313 314 313 311 309 308 311 317 316 315 316 316 317 316
324 322 321 320 320 319 319 320 320 317 314 312 310 311 311 310 309 306 306 306 305 308 312 319 321 319 314 313 310 310 309 311 309 307 305 306 309 316 314 313 313 314 314
320 319 321 323 319 318 317 317 317 314 312 309 308 308 310 308 307 305 305 305 305 309 313 315 316 315 312 311 306 303 301 304 308 306 304 303 304 307 312 312 312 312 312
319 318 318 317 318 317 312 312 311 309 308 307 308 307 308 308 308 305 305 305 306 306 306 309 308 310 309 308 305 301 299 298 300 302 300 301 303 303 304 311 311 311 311
317 317 316 316 314 311 309 308 306 304 304 304 305 306 307 308 308 306 306 306 306 305 304 302 302 303 305 309 306 302 298 299 299 298 299 301 300 302 301 302 301 304 310
312 312 310 310 309 309 307 304 303 301 301 301 303 305 305 306 306 306 305 305 305 304 304 304 302 302 302 307 307 304 300 300 299 298 298 297 298 300 299 300 298 299 303
310 309 309 308 308 307 306 305 303 302 301 302 302 302 304 305 306 306 305 304 304 304 303 303 302 301 301 302 305 304 296 299 300 299 299 300 297 299 300 300 299 300 299
309 308 309 307 307 307 304 305 302 302 301 299 300 300 302 305 306 305 304 304 304 303 302 301 301 301 298 299 299 302 296 293 296 298 296 296 297 298 297 299 299 299 297
310 308 308 307 307 305 303 303 300 299 298 299 299 299 300 303 304 304 303 302 302 302 302 302 301 298 297 296 297 298 296 295 293 293 296 295 297 298 296 297 296 297 297
311 309 308 307 308 304 302 301 299 299 298 297 296 296 297 299 300 302 301 301 300 301 300 299 298 297 296 294 294 293 293 294 294 291 289 290 294 295 295 294 294 294 295
312 310 308 308 307 304 302 300 298 297 296 295 294 295 296 298 299 299 300 299 299 299 299 298 297 297 296 296 296 295 294 292 290 290 289 288 288 291 293 293 292 292 293
Wind_Speed
10 7 14 16 16 16 16 16 15 16 14 15 16 16 15 14 14 14 13 13 14 15 15 14 13 12 14 15 15 14 12 10 9 9 8 9 10 12 11 11 9 8 10
14 9 15 17 17 17 17 17 15 16 14 16 15 14 14 14 13 14 13 12 12 13 13 13 12 11 12 13 12 11 10 9 7 6 5 7 9 10 11 10 9 7 9
16 12 13 16 17 18 17 17 15 16 16 15 15 14 14 13 13 14 12 11 11 12 12 11 11 10 10 10 8 11 12 9 6 5 1 3 4 8 10 9 8 7 8
14 12 12 16 17 17 17 16 15 16 16 15 15 14 14 14 13 12 12 11 11 11 11 11 10 9 9 10 13 17 13 11 12 1 2 3 6 6 6 8 9 11 9
12 12 13 15 16 16 16 16 14 14 14 13 13 14 14 13 12 11 9 10 10 10 10 9 8 9 10 12 14 14 11 14 14 11 8 6 5 8 13 13 10 10 10
13 11 14 15 15 15 14 15 14 13 12 12 12 13 13 13 12 11 9 8 9 9 8 9 9 9 11 12 14 12 12 13 11 9 8 7 6 12 16 18 19 19 18
14 12 12 14 15 15 14 14 13 12 11 11 11 11 11 12 12 10 8 8 8 8 8 8 8 9 9 11 13 12 11 13 9 9 9 9 10 16 19 20 21 20 19
16 12 11 14 14 14 12 12 12 11 10 10 10 10 10 10 9 9 9 7 7 6 6 7 7 8 9 11 13 17 16 13 9 9 9 9 15 18 22 23 23 23 22
12 13 11 11 11 12 11 10 10 10 10 9 9 9 9 8 8 8 7 7 6 5 4 4 4 6 8 11 13 16 16 15 8 6 10 7 16 19 22 23 24 24 23
11 11 11 10 10 9 7 8 8 9 9 8 8 8 8 7 6 6 6 5 5 4 4 4 6 8 11 15 16 16 16 16 10 9 8 8 18 21 22 22 23 23 22
9 9 7 7 6 6 5 4 5 8 9 8 5 6 6 3 4 4 4 4 3 2 3 4 7 11 17 17 18 17 15 7 10 8 7 16 19 22 23 22 22 21 21
12 10 9 8 6 5 5 6 4 5 4 4 5 6 5 4 4 4 3 3 2 3 1 5 10 15 12 6 7 12 5 9 8 7 7 16 19 21 20 21 22 23 22
8 6 4 6 7 6 5 3 3 3 3 3 6 5 5 4 3 2 2 2 3 6 3 6 7 6 8 5 6 6 8 7 6 6 10 18 20 20 20 20 21 21 20
8 7 6 6 7 8 6 5 4 4 3 4 4 5 4 3 3 4 3 4 4 4 6 6 5 9 8 9 8 9 8 7 5 4 8 16 18 19 19 20 20 19 20
11 9 6 8 8 8 9 6 5 4 4 4 5 5 4 4 6 4 4 4 4 4 4 5 5 7 8 8 6 7 10 8 6 3 3 16 17 19 19 20 20 19 20
10 8 7 7 6 6 7 7 6 4 5 5 4 4 5 4 4 5 4 4 5 4 3 4 6 7 7 8 7 8 8 6 5 5 4 6 15 17 18 18 18 18 18
8 6 7 7 6 5 7 7 6 5 4 5 4 6 5 5 5 5 4 4 3 2 5 6 6 5 5 7 7 6 6 6 5 5 4 4 6 13 15 16 16 17 16
8 7 6 7 7 8 6 4 5 4 4 4 4 4 5 6 6 6 5 5 4 4 4 4 4 4 4 6 5 5 5 5 6 5 4 4 4 4 9 14 14 14 16
9 8 8 7 8 8 8 7 7 7 5 4 4 4 5 6 6 6 4 4 5 5 6 5 5 4 4 3 5 5 4 5 6 4 5 5 5 4 3 8 7 12 15
7 7 7 6 7 8 7 7 6 5 5 4 5 3 6 4 5 5 4 5 5 5 5 5 5 4 4 4 6 6 4 4 5 4 5 5 4 4 4 4 3 5 15
8 9 7 9 7 8 6 5 4 3 3 4 4 5 5 5 5 5 3 6 4 5 5 4 3 5 5 2 4 5 5 5 6 5 3 4 5 4 5 4 4 4 6
8 8 7 7 7 4 4 4 4 4 3 4 2 4 7 5 4 5 6 5 4 5 6 5 4 3 4 3 4 4 3 4 6 5 4 4 5 3 5 7 8 7 5
7 8 8 7 7 6 7 7 5 6 4 2 3 3 5 5 4 7 7 6 5 4 5 5 5 5 4 4 7 4 3 3 3 0 4 5 6 4 5 8 7 5 4
8 7 7 6 7 6 8 9 11 5 6 2 2 2 5 4 4 7 7 6 5 4 7 6 5 3 5 5 5 7 7 4 3 2 2 4 5 8 6 6 5 4 4
12 10 8 7 7 6 7 8 6 6 4 3 3 6 4 4 5 6 6 6 6 5 7 6 6 7 4 3 4 1 6 5 5 3 2 3 3 4 5 4 3 4 4
13 12 10 10 7 7 7 8 9 11 8 6 4 4 3 2 3 6 6 6 7 6 6 5 6 8 7 6 6 7 4 3 2 4 4 1 2 2 3 3 4 4 4
Wind_Direction
150 142 115 110 107 104 101 96 95 94 88 86 85 85 83 81 81 79 80 81 84 90 91 89 84 80 79 77 71 64 59 52 51 58 64 76 80 83 97 93 89 82 81
139 136 119 116 113 109 104 102 99 97 92 90 88 86 86 86 90 88 80 82 87 88 86 83 81 75 71 66 57 54 50 38 31 38 45 74 87 88 88 84 78 75 70
137 130 119 118 115 111 109 104 103 100 98 93 91 89 88 83 86 98 92 86 83 86 83 79 70 58 51 55 52 45 33 16 333 306 51 60 59 83 94 94 86 75 73
134 126 122 119 116 114 112 109 108 107 104 101 97 94 92 90 82 86 90 88 88 86 83 76 67 50 30 29 32 41 21 359 353 131 141 132 53 52 64 89 76 67 57
124 124 120 115 115 116 115 112 111 109 110 108 105 103 101 98 94 87 81 94 93 86 80 75 63 44 26 20 32 43 15 13 28 69 72 84 66 60 62 60 59 52 42
123 121 115 115 114 115 114 113 112 108 105 106 107 108 108 105 100 93 81 77 89 93 79 65 48 36 30 23 27 30 21 32 57 55 58 54 76 65 67 64 61 56 50
127 123 120 118 118 118 117 114 111 110 112 112 112 111 110 109 108 100 90 80 74 67 65 58 45 36 34 33 29 20 33 66 68 64 62 62 64 66 68 66 63 58 53
129 124 123 121 119 118 116 117 117 118 119 118 115 113 114 112 108 108 104 94 83 74 67 58 49 42 42 46 43 57 62 52 62 67 69 67 67 68 68 64 59 58 54
116 120 120 119 111 102 109 118 123 126 120 111 110 109 110 113 117 115 112 113 107 94 72 58 51 56 64 72 75 70 61 54 57 67 74 73 75 74 68 68 64 57 55
117 122 125 125 125 127 132 136 135 118 106 110 115 121 129 128 128 126 119 121 112 98 85 66 59 60 76 86 82 76 66 55 52 57 65 71 72 71 72 68 64 58 53
123 127 123 127 134 137 132 141 100 106 104 92 112 129 142 133 132 157 144 139 124 119 104 72 54 78 95 88 81 73 71 61 61 55 60 73 78 74 64 59 61 63 58
143 145 150 151 151 132 125 100 98 97 64 65 82 73 84 101 127 136 147 140 70 336 326 108 83 90 94 92 89 80 72 74 62 59 59 60 67 65 58 62 62 61 57
136 144 135 140 133 140 112 106 78 64 72 45 67 65 82 81 73 78 75 31 18 60 68 101 91 88 90 93 80 86 83 72 74 67 64 69 68 66 64 62 62 61 58
109 115 110 109 117 111 111 98 104 98 63 66 40 55 83 71 62 59 66 47 36 32 61 62 94 101 85 86 93 93 89 82 77 59 71 74 72 70 68 64 63 63 60
118 115 102 104 110 118 115 115 109 95 76 75 62 42 41 79 86 81 63 62 53 47 55 89 95 100 101 93 90 97 92 91 84 69 61 79 75 72 68 62 60 62 62
127 130 132 119 123 120 121 129 124 114 115 85 64 52 59 76 93 86 66 64 51 50 75 107 121 116 114 109 100 99 105 103 100 96 75 75 80 77 74 69 65 61 60
138 127 117 118 118 110 126 129 124 118 100 90 89 61 69 80 80 87 77 64 48 34 81 114 109 104 109 104 102 98 116 128 115 113 100 89 83 84 83 77 67 61 60
128 131 127 122 117 106 86 63 93 87 87 87 71 71 72 78 77 73 81 56 24 43 60 75 106 104 104 115 114 118 103 112 124 114 122 110 92 85 92 92 72 61 57
134 144 140 134 123 113 91 82 69 57 51 51 57 62 84 80 79 86 80 84 62 55 59 64 45 62 81 86 114 99 91 110 116 112 114 122 113 110 99 110 67 45 68
133 138 124 117 121 101 94 89 75 69 51 29 45 352 65 76 87 87 81 74 81 82 71 76 106 82 107 121 107 85 66 79 82 73 93 100 120 131 111 89 48 48 69
140 129 135 136 139 126 122 120 92 78 74 54 42 6 46 43 80 74 70 69 50 83 84 83 95 76 38 78 109 72 58 55 55 62 51 66 71 93 92 101 68 58 53
143 129 131 135 142 125 101 92 112 133 55 90 85 50 42 40 49 86 64 50 52 83 82 76 60 97 76 351 120 98 99 29 36 42 31 38 50 61 54 60 63 72 57
141 147 155 160 143 138 123 110 92 82 76 94 47 33 36 29 43 69 66 62 32 45 77 73 70 61 109 26 57 128 112 134 152 257 33 36 36 54 50 65 65 76 60
166 152 162 165 142 147 134 129 141 142 146 134 107 104 82 32 64 81 80 80 86 53 59 63 52 90 112 114 66 41 54 109 153 157 356 45 37 74 67 63 48 47 39
164 173 169 162 157 163 141 140 138 118 104 113 94 88 66 69 71 70 75 79 70 71 63 64 63 56 33 76 63 124 55 64 48 110 99 340 58 47 66 70 52 33 16
173 177 170 166 175 173 150 141 137 135 138 124 126 118 129 90 63 73 84 79 75 78 79 74 73 69 64 69 70 61 80 100 9 73 86 296 119 47 68 62 51 11 10